{"data":{"norad_id":69343,"intl_designator":"2026-122Q","name":"STARLINK-37776","alt_names":[],"object_type":"PAYLOAD","status":"ACTIVE","operator":null,"country":"US","launch_date":"2026-06-03","launch_site_code":"AFWTR","launch_vehicle":null,"mission":null,"orbit_class":"UNKNOWN","rcs_meters":null,"size_class":null,"mass_kg":null,"dimensions":null,"purposes":["comms"],"wikipedia_slug":null,"has_3d_model":false,"image_url":null,"decayed_at":null,"tle_current":{"epoch":"2026-09-20T01:36:01.057824Z","epoch_age_seconds":66482,"freshness":"FRESH","line1":"1 69343U 26122Q   26263.06667891  .00019130  00000+0  59343-3 0  9990","line2":"2 69343  97.2839 291.7056 0000597 142.8066 217.3218 15.33442787 16738","mean_motion":15.33442787,"eccentricity":5.97e-5,"inclination_deg":97.2839,"raan_deg":291.7056,"arg_perigee_deg":142.8066,"mean_anomaly_deg":217.3218,"bstar":0.00059343,"rev_number":1673,"period_min":93.906340178311,"perigee_km":465.14119071757,"apogee_km":465.95832691657,"semimajor_km":6843.6867588171,"source":"CELESTRAK","updated_at":"2026-09-20T09:00:44.161928Z"}}}